Home   Weather   Inglewood   Past weeks

Flag for USA Past Weather in Inglewood, California, USA — Yesterday and Last 2 Weeks

Now
57 °F

Mostly cloudy.


Feels Like: 56 °F
Forecast: 45 / 60 °F
Wind: 7 mph from West

Location: Hawthorne Municipal Airport

Current Time: Feb 27, 2017 at 4:56:00 pm

Latest Report: Feb 27, 2017 at 3:53 pm


Visibility: 10 mi

Pressure: 29.83 "Hg

Humidity: 67%

Dew Point: 46 °F

Location of InglewoodLocation

Past Weather in Inglewood — Graph

°F

Inglewood Temperature Yesterday

Maximum temperature yesterday: 56 °F (at 3:53 pm)
Minimum temperature yesterday: 49 °F (at 4:53 am)
Average temperature yesterday: 53 °F

High & Low Weather Summary for the Past Weeks

 TemperatureHumidityPressure
High75 °F (Feb 15, 12:53 pm)100% (Feb 15, 1:37 am)30.35 "Hg (Feb 15, 1:37 am)
Low43 °F (Feb 24, 3:53 am)21% (Feb 23, 12:53 pm)29.45 "Hg (Feb 17, 3:53 pm)
Average57 °F75%30.02 "Hg
* Reported Feb 12 2:53 pm — Feb 27 2:53 pm, Inglewood, Weather by CustomWeather, © 2017

Note: Actual official high and low records may vary slightly from our data, if they occured in-between our weather recording intervals... More about our weather records

Advertising

Inglewood Weather History for the Previous 24 Hours

Scroll right to see more
 ConditionsComfort  
Time TempWeatherWind HumidityBarometerVisibility
2:53 pm
Mon, Feb 27
57 °FOvercast.3 mph67%29.82 "Hg10 mi
1:53 pm58 °FOvercast.5 mph67%29.85 "Hg10 mi
12:53 pm57 °FPartly sunny.No wind64%29.87 "Hg10 mi
11:53 am57 °FMore clouds than sun.No wind64%29.89 "Hg10 mi
10:53 am56 °FLight rain. Mostly cloudy.3 mph67%29.90 "Hg10 mi
9:53 am56 °FOvercast.3 mph62%29.90 "Hg10 mi
8:53 am55 °FOvercast.No wind64%29.91 "Hg10 mi
7:53 am53 °FScattered clouds.3 mph66%29.89 "Hg10 mi
6:53 am53 °FMostly cloudy.3 mph69%29.89 "Hg10 mi
5:53 am52 °FOvercast.3 mph72%29.88 "Hg10 mi
4:53 am52 °FMostly cloudy.5 mph69%29.90 "Hg10 mi
3:53 am51 °FMostly cloudy.5 mph71%29.90 "Hg10 mi
2:53 am50 °FPassing clouds.3 mph80%29.93 "Hg10 mi
1:53 am50 °FClear.5 mph80%29.95 "Hg10 mi
12:53 am52 °FOvercast.5 mph77%29.96 "Hg10 mi
11:53 pm
Sun, Feb 26
52 °FOvercast.No wind77%29.97 "Hg10 mi
10:53 pm52 °FOvercast.7 mph77%29.98 "Hg10 mi
9:53 pm52 °FPassing clouds.7 mph80%29.97 "Hg10 mi
8:53 pm54 °FOvercast.6 mph67%29.98 "Hg10 mi
7:53 pm54 °FOvercast.3 mph67%29.98 "Hg10 mi
6:53 pm54 °FLight rain. Passing clouds.3 mph67%29.97 "Hg10 mi
5:53 pm55 °FLight rain. Passing clouds.8 mph64%29.96 "Hg10 mi
4:53 pm56 °FPartly sunny.10 mph60%29.95 "Hg10 mi
Weather by CustomWeather, © 2017

See weather overviewHow to use our weather pages